Estación de Polizones INIA
Ultimos registro cada 15 minutos 85
| N° | Estación | Fecha / Hora | Temperatura | Humedad | Lluvia | Velocidad | Dirección | Radiación | Presion |
| 85 | Polizones INIA | 08-05-2026 21:00 | 4,7 | 89,9 | 0 | 0 | 0 | 0 | 1012 |
| 84 | Polizones INIA | 08-05-2026 20:45 | 4,7 | 89,6 | 0 | 0 | 0 | 0 | 1012 |
| 83 | Polizones INIA | 08-05-2026 20:30 | 4,2 | 91,7 | 0 | 0,2 | 89 | 0 | 1012 |
| 82 | Polizones INIA | 08-05-2026 20:15 | 4,7 | 88,9 | 0 | 0,4 | 333 | 0 | 1011 |
| 81 | Polizones INIA | 08-05-2026 20:00 | 5,8 | 85,2 | 0 | 0,3 | 318 | 0 | 1012 |
| 80 | Polizones INIA | 08-05-2026 19:45 | 6,7 | 80,1 | 0 | 0,1 | 116 | 0 | 1012 |
| 79 | Polizones INIA | 08-05-2026 19:30 | 7 | 78,9 | 0 | 0,3 | 131 | 0 | 1012 |
| 78 | Polizones INIA | 08-05-2026 19:15 | 7 | 77,6 | 0 | 0,5 | 128 | 0 | 1011 |
| 77 | Polizones INIA | 08-05-2026 19:00 | 7,2 | 77,4 | 0 | 0,2 | 122 | 0 | 1011 |
| 76 | Polizones INIA | 08-05-2026 18:45 | 7,4 | 76,1 | 0 | 0 | 0 | 0 | 1011 |
| 75 | Polizones INIA | 08-05-2026 18:30 | 7,7 | 74,3 | 0 | 0 | 151 | 0 | 1010 |
| 74 | Polizones INIA | 08-05-2026 18:15 | 8,2 | 74 | 0 | 0,4 | 139 | 1 | 1010 |
| 73 | Polizones INIA | 08-05-2026 18:00 | 8,8 | 72,9 | 0 | 0,2 | 136 | 4 | 1010 |
| 72 | Polizones INIA | 08-05-2026 17:45 | 9,5 | 69 | 0 | 0,1 | 133 | 11 | 1010 |
| 71 | Polizones INIA | 08-05-2026 17:30 | 10 | 65,1 | 0 | 0,4 | 136 | 25 | 1009 |
| 70 | Polizones INIA | 08-05-2026 17:15 | 10,4 | 63,4 | 0 | 1,1 | 139 | 53 | 1009 |
| 69 | Polizones INIA | 08-05-2026 17:00 | 10,9 | 62,6 | 0 | 1,6 | 144 | 116 | 1009 |
| 68 | Polizones INIA | 08-05-2026 16:45 | 11,1 | 61,6 | 0 | 1,1 | 138 | 150 | 1009 |
| 67 | Polizones INIA | 08-05-2026 16:30 | 11,1 | 68 | 0 | 1,8 | 151 | 182 | 1009 |
| 66 | Polizones INIA | 08-05-2026 16:15 | 11,2 | 66,2 | 0 | 2,2 | 148 | 217 | 1009 |
| 65 | Polizones INIA | 08-05-2026 16:00 | 11,3 | 68,6 | 0 | 1,7 | 154 | 251 | 1009 |
| 64 | Polizones INIA | 08-05-2026 15:45 | 11,4 | 70,2 | 0 | 1,5 | 155 | 284 | 1008 |
| 63 | Polizones INIA | 08-05-2026 15:30 | 11,2 | 72,2 | 0 | 2 | 151 | 316 | 1009 |
| 62 | Polizones INIA | 08-05-2026 15:15 | 11,2 | 70 | 0 | 1,6 | 144 | 346 | 1008 |
| 61 | Polizones INIA | 08-05-2026 15:00 | 10,9 | 68,2 | 0 | 2,4 | 139 | 374 | 1008 |
| 60 | Polizones INIA | 08-05-2026 14:45 | 11 | 71 | 0 | 2 | 139 | 401 | 1008 |
| 59 | Polizones INIA | 08-05-2026 14:30 | 10,5 | 69,8 | 0 | 1,6 | 128 | 360 | 1008 |
| 58 | Polizones INIA | 08-05-2026 14:15 | 10,7 | 72,1 | 0 | 1,8 | 137 | 398 | 1008 |
| 57 | Polizones INIA | 08-05-2026 14:00 | 10 | 74,3 | 0 | 2,1 | 131 | 397 | 1007 |
| 56 | Polizones INIA | 08-05-2026 13:45 | 9,9 | 76,8 | 0 | 1,9 | 143 | 262 | 1007 |
| 55 | Polizones INIA | 08-05-2026 13:30 | 9,7 | 77 | 0 | 2,2 | 141 | 408 | 1008 |
| 54 | Polizones INIA | 08-05-2026 13:15 | 9,9 | 81,6 | 0 | 2,7 | 154 | 394 | 1008 |
| 53 | Polizones INIA | 08-05-2026 13:00 | 9,6 | 77,8 | 0 | 2,3 | 145 | 507 | 1008 |
| 52 | Polizones INIA | 08-05-2026 12:45 | 9,2 | 84 | 0 | 1,7 | 132 | 365 | 1008 |
| 51 | Polizones INIA | 08-05-2026 12:30 | 8,7 | 85,4 | 0 | 0,9 | 135 | 265 | 1008 |
| 50 | Polizones INIA | 08-05-2026 12:15 | 8,2 | 88,4 | 0 | 1,4 | 142 | 147 | 1008 |
| 49 | Polizones INIA | 08-05-2026 12:00 | 8,4 | 89,4 | 0 | 1,8 | 158 | 226 | 1008 |
| 48 | Polizones INIA | 08-05-2026 11:45 | 7,7 | 93,4 | 0 | 0,4 | 148 | 254 | 1008 |
| 47 | Polizones INIA | 08-05-2026 11:30 | 7,3 | 94,6 | 0 | 0,3 | 127 | 91 | 1007 |
| 46 | Polizones INIA | 08-05-2026 11:15 | 7,5 | 93,3 | 0,1 | 1,1 | 155 | 88 | 1008 |
| 45 | Polizones INIA | 08-05-2026 11:00 | 7,6 | 92,4 | 0 | 0,7 | 155 | 148 | 1008 |
| 44 | Polizones INIA | 08-05-2026 10:45 | 7,4 | 93,9 | 0 | 0,6 | 141 | 128 | 1007 |
| 43 | Polizones INIA | 08-05-2026 10:30 | 7,4 | 94,3 | 0 | 0,4 | 144 | 87 | 1007 |
| 42 | Polizones INIA | 08-05-2026 10:15 | 7,2 | 95,1 | 0 | 0,4 | 133 | 97 | 1007 |
| 41 | Polizones INIA | 08-05-2026 10:00 | 7,1 | 95,5 | 0 | 0,4 | 140 | 175 | 1007 |
| 40 | Polizones INIA | 08-05-2026 09:45 | 6,9 | 96,2 | 0 | 0,4 | 131 | 166 | 1007 |
| 39 | Polizones INIA | 08-05-2026 09:30 | 6,7 | 98 | 0 | 0,2 | 153 | 115 | 1007 |
| 38 | Polizones INIA | 08-05-2026 09:15 | 6,5 | 98,4 | 0 | 0 | 161 | 97 | 1006 |
| 37 | Polizones INIA | 08-05-2026 09:00 | 6,2 | 98,3 | 0 | 0 | 0 | 74 | 1006 |
| 36 | Polizones INIA | 08-05-2026 08:45 | 6,1 | 98,3 | 0 | 0 | 134 | 32 | 1006 |
| 35 | Polizones INIA | 08-05-2026 08:30 | 6 | 98,2 | 0,1 | 0,2 | 115 | 15 | 1006 |
| 34 | Polizones INIA | 08-05-2026 08:15 | 6 | 98,2 | 0 | 0,2 | 122 | 8 | 1005 |
| 33 | Polizones INIA | 08-05-2026 08:00 | 5,9 | 98,2 | 0 | 0 | 105 | 4 | 1005 |
| 32 | Polizones INIA | 08-05-2026 07:45 | 6 | 97,9 | 0 | 0,1 | 138 | 1 | 1005 |
| 31 | Polizones INIA | 08-05-2026 07:30 | 6 | 98 | 0 | 0 | 0 | 0 | 1005 |
| 30 | Polizones INIA | 08-05-2026 07:15 | 5,8 | 98 | 0 | 0 | 0 | 0 | 1004 |
| 29 | Polizones INIA | 08-05-2026 07:00 | 6 | 97,6 | 0 | 0 | 0 | 0 | 1005 |
| 28 | Polizones INIA | 08-05-2026 06:45 | 6,1 | 97,6 | 0,1 | 0 | 0 | 0 | 1004 |
| 27 | Polizones INIA | 08-05-2026 06:30 | 6,1 | 97,7 | 0 | 0 | 0 | 0 | 1004 |
| 26 | Polizones INIA | 08-05-2026 06:15 | 6,2 | 97,5 | 0,1 | 0 | 0 | 0 | 1004 |
| 25 | Polizones INIA | 08-05-2026 06:00 | 6,1 | 97,7 | 0 | 0 | 0 | 0 | 1004 |
| 24 | Polizones INIA | 08-05-2026 05:45 | 6,1 | 97,5 | 0 | 0 | 0 | 0 | 1004 |
| 23 | Polizones INIA | 08-05-2026 05:30 | 6 | 97,6 | 0 | 0 | 0 | 0 | 1003 |
| 22 | Polizones INIA | 08-05-2026 05:15 | 5,9 | 97,3 | 0 | 0 | 0 | 0 | 1003 |
| 21 | Polizones INIA | 08-05-2026 05:00 | 5,9 | 97,2 | 0 | 0 | 0 | 0 | 1003 |
| 20 | Polizones INIA | 08-05-2026 04:45 | 5,8 | 97,2 | 0 | 0 | 0 | 0 | 1003 |
| 19 | Polizones INIA | 08-05-2026 04:30 | 5,8 | 97,1 | 0 | 0 | 0 | 0 | 1003 |
| 18 | Polizones INIA | 08-05-2026 04:15 | 5,7 | 97 | 0 | 0 | 93 | 0 | 1003 |
| 17 | Polizones INIA | 08-05-2026 04:00 | 5,7 | 96,9 | 0,1 | 0,1 | 28 | 0 | 1003 |
| 16 | Polizones INIA | 08-05-2026 03:45 | 5,7 | 96,6 | 0 | 0 | 0 | 0 | 1003 |
| 15 | Polizones INIA | 08-05-2026 03:30 | 5,8 | 96,5 | 0,1 | 0 | 0 | 0 | 1003 |
| 14 | Polizones INIA | 08-05-2026 03:15 | 5,8 | 96,3 | 0 | 0 | 0 | 0 | 1003 |
| 13 | Polizones INIA | 08-05-2026 03:00 | 0 | 0 | 0,1 | 0 | 0 | 0 | 1004 |
| 12 | Polizones INIA | 08-05-2026 02:45 | 5,9 | 95,7 | 0,1 | 0 | 0 | 0 | 1003 |
| 11 | Polizones INIA | 08-05-2026 02:30 | 5,9 | 95,5 | 0 | 0,1 | 2 | 0 | 1003 |
| 10 | Polizones INIA | 08-05-2026 02:15 | 5,9 | 95,7 | 0 | 0,4 | 354 | 0 | 1003 |
| 9 | Polizones INIA | 08-05-2026 02:00 | 5,8 | 95,9 | 0 | 0,8 | 3 | 0 | 1003 |
| 8 | Polizones INIA | 08-05-2026 01:45 | 5,8 | 96,3 | 0 | 1 | 359 | 0 | 1003 |
| 7 | Polizones INIA | 08-05-2026 01:30 | 5,9 | 96,3 | 0 | 1,3 | 11 | 0 | 1003 |
| 6 | Polizones INIA | 08-05-2026 01:15 | 5,9 | 96,3 | 0 | 0,9 | 12 | 0 | 1003 |
| 5 | Polizones INIA | 08-05-2026 01:00 | 5,9 | 96,3 | 0 | 1,1 | 359 | 0 | 1004 |
| 4 | Polizones INIA | 08-05-2026 00:45 | 5,9 | 96,3 | 0 | 0,7 | 12 | 0 | 1004 |
| 3 | Polizones INIA | 08-05-2026 00:30 | 5,9 | 96,3 | 0,1 | 0,8 | 13 | 0 | 1004 |
| 2 | Polizones INIA | 08-05-2026 00:15 | 5,9 | 96,2 | 0 | 0,9 | 18 | 0 | 1004 |
| 1 | Polizones INIA | 08-05-2026 00:00 | 5,8 | 96,5 | 0,1 | 0,8 | 357 | 0 | 1004 |